Tracking 28790 objects as of 18-Apr-2024
HD Live streaming from Space Station
objects crossing your sky now

SL-8 DEB

Track SL-8 DEB now!
10-day predictions


NORAD ID: 5301
Int'l Code: 1971-035D
Perigee: 647.6 km
Apogee: 658.9 km
Inclination: 74.0 °
Period: 97.6 minutes
Semi major axis: 7024 km
RCS: 0.0089 m2 (small)
Launch date: April 23, 1971
Source: Commonwealth of Independent States (former USSR) (CIS)
Launch site: PLESETSK MISSILE AND SPACE COMPLEX (PKMTR)

Note: This is SATELLITE DEBRIS
Your satellite tracking list
Your tracking list is empty




NASA's NSSDC Master Catalog

Two Line Element Set (TLE):
1 05301U 71035D   24107.72401547  .00011152  00000-0  16704-2 0  9999
2 05301  74.0309 352.5043 0008087   8.6678 351.4634 14.74701066794635
Source of the keplerian elements: AFSPC